Location: Dackenheim
(49.5215°N, 8.1854°E)
Time: 11:57:41
(UTC+00:00)

JY1SAT - Pass Details

Date: 17 March 2026
Orbit: 466 x 476 km, 97.4° (Epoch: 14 April)

Event Time Altitude Azimuth Distance (km) Brightness Sun altitude
Rises 11:47:44 0° 338° (NNW) 2,542 ? 39.2°
Enters shadow 12:35:29 -77° 144° (SE) 12,913 ? 37.7°
Exits shadow 13:08:06 -25° 38° (NE) 6,402 ? 35.5°
